Showing default

CENTISPACE-1 S16, 62585

Orbit data source: Space-Track

CENTISPACE-1 S16, 62585 is a payload satellite owned by Centispace (CN) in LEO that was launched on Mon, 13 Jan 2025 UTC via a JIELONG-3 launch vehicle from the Yellow Sea Launch Area, China (YSLA). Payload-class satellites include a variety of spacecraft equipped with specific instruments for various scientific and technological missions. These include communications satellites like Starlink; space stations such as the ISS; scientific satellites like the Hubble; Earth observation satellites from companies like Planet Labs, Umbra, and HawkEye 360; GPS; miniature CubeSats for education and research; and military/defense satellites.

Loading next visibility...
Identifier
62585, 2025-007L
Orbit
LEO
Country
Flag of CNCN / PRC
Related business
Manufacturer
HITSAT
Mission
Operational Commercial Nav/Com
Bus & Motor
WK01H, Unknown motor
Mass
140 kg wet, 140 kg dry
Launch date (UTC)
2025-01-13 (2 years ago)
Launch vehicle
JIELONG-3
Launch site
Yellow Sea Launch Area, China (YSLA)
Object type
Payload
Rocket body
Debris
Shape & HBR
Box + 2 Pan, 1.0 m
Radar Cross Section
0.833 m², Large (>1 m²)

Expand to show TLE details & history
Last TLE update: 5 hours ago

TLE from 5 hours ago
0 CENTISPACE-1 S16
1 62585U 25007L   26265.57019081 -.00000051  00000-0  84685-4 0  9994
2 62585  54.9889 310.8191 0010462 280.4502  79.5276 13.80534294 88166
Epoch: 2026-09-22T13:41Z
TLE epoch observation values (Epoch: 2026-09-22T13:41:04.485Z)
Latitude
0.00002°
Longitude
104.11666°
Altitude
961.626 km
Speed
7.373 km/s
True Right ascension
20h 43m 16s
True Declination
0° 00' 00"
Sunlit
Object was in full shadow at epoch
Visualization orbit readout
Latitude
Unknown
Longitude
Unknown
Altitude
Unknown
Speed
Unknown
Apparent Right ascension
Unknown
Apparent Declination
Unknown
Sunlit
N/A
Visualization observer readout
Local Sidereal Time
11:58:26
Azimuth
Unknown
Elevation
Unknown
Doppler factor
Unknown
Orbital elements
Apogee altitude
969.639 km
Perigee altitude
954.28 km
Semi-major axis
7,340.096 km
Eccentricity
0.00105
Inclination
54.9889°
RAAN
310.8191°
Arg. of periapsis
280.4502°
True anomaly
79.64552°
Mean anomaly
79.5276°
Eccentric anomaly
79.58656°
Mean motion
3.45136 °/min
Orbital period
104.31 mins
BSTAR
0.000084685
Loading maneuver chart data...
Computing Atmospheric mass density...
Loading historical data...
Loading historical data...
Loading historical data...
Loading historical data...
Loading historical data...
Loading historical data...
Loading historical data...

Documentation

Showing up to 5 results
|